Location: Lafig�re
(44.4503°N, 4.0357°E)
Time: 09:38:24
(UTC+00:00)

Tiros 1 - Pass Details

Date: 25 January 2021
Orbit: 630 x 664 km, 48.4° (Epoch: 07 March)

Event Time Altitude Azimuth Distance (km) Brightness Sun altitude
Rises 20:01:16 0° 279° (W) 2,923 11.5 -35.1°
Reaches altitude 10° 20:03:39 10° 285° (WNW) 2,012 10.4 -35.6°
Enters shadow 20:05:03 19° 291° (WNW) 1,504 9.6 -35.8°
